Location: Newark
(51.2625°N, 13.3939°E)
Time: 18:45:00
(UTC+00:00)

deb Explorer IX - Pass Details

Date: 21 November 2019
Orbit: 546 x 1104 km, 38.8° (Epoch: 11 December)

Event Time Altitude Azimuth Distance (km) Brightness Sun altitude
Rises 01:28:58 0° 246° (WSW) 3,657 - -46.1°
Reaches altitude 10° 01:32:15 10° 233° (SW) 2,613 - -45.7°
Maximum altitude 01:37:02 24° 183° (S) 1,687 - -45.0°
Drops below altitude 10° 01:41:19 10° 131° (SE) 2,301 - -44.4°
Exits shadow 01:43:59 - 117° (ESE) 3,119 ? -44.0°
Sets 01:44:00 0° 117° (ESE) 3,126 ? -44.0°
